User: anonymous   Login
Location: Kirkcaldy
(50.3333°N, 113.2333°W)
Time: 08:14:00
(UTC+00:00)
Language:

QB50P2 - Orbit

View from above orbital plane
View from above orbital plane
View from above satellite
View from above satellite

Ground track
Ground track

The orbit data is extracted from the following two-line orbital elements,

1 40032U 14033Y   23339.51089703  .00005850  00000-0  53611-3 0  9990
2 40032  97.9846 282.6332 0012014  84.2621 275.9969 14.95255913513551
Epoch (UTC): 05 December 2023 12:15:41
Eccentricity: 0.0012014
inclination: 97.9846°
perigee height: 573 km
apogee height: 590 km
right ascension of ascending node: 282.6332°
argument of perigee: 84.2621°
revolutions per day: 14.95255913
mean anomaly at epoch: 275.9969°
orbit number at epoch: 51355

The dashed part of the orbit path shows where the satellite is in the earth's shadow,  

DLR